TimeEDT,TemperatureF,Dew PointF,Humidity,Sea Level PressureIn,VisibilityMPH,Wind Direction,Wind SpeedMPH,Gust SpeedMPH,PrecipitationIn,Events,Conditions,WindDirDegrees,DateUTC
12:51 AM,64.0,41.0,43,30.17,10.0,North,12.7,-,N/A,,Partly Cloudy,360,2013-09-06 04:51:00
1:51 AM,62.1,44.1,52,30.17,10.0,North,6.9,-,N/A,,Clear,350,2013-09-06 05:51:00
2:51 AM,61.0,43.0,52,30.18,10.0,North,10.4,23.0,N/A,,Clear,360,2013-09-06 06:51:00
3:51 AM,60.1,44.1,55,30.18,10.0,North,11.5,-,N/A,,Clear,10,2013-09-06 07:51:00
4:51 AM,57.9,41.0,53,30.19,10.0,NNE,9.2,-,N/A,,Clear,20,2013-09-06 08:51:00
5:51 AM,57.0,41.0,55,30.21,10.0,North,9.2,-,N/A,,Mostly Cloudy,360,2013-09-06 09:51:00
6:51 AM,57.0,41.0,55,30.23,10.0,North,9.2,-,N/A,,Mostly Cloudy,360,2013-09-06 10:51:00
7:51 AM,57.9,39.9,51,30.25,10.0,NNE,9.2,-,N/A,,Mostly Cloudy,20,2013-09-06 11:51:00
8:51 AM,61.0,39.9,46,30.26,10.0,NE,9.2,-,N/A,,Mostly Cloudy,50,2013-09-06 12:51:00
9:51 AM,63.0,42.1,46,30.26,10.0,NNE,10.4,-,N/A,,Mostly Cloudy,30,2013-09-06 13:51:00
10:51 AM,64.0,39.0,40,30.26,10.0,ENE,11.5,-,N/A,,Mostly Cloudy,70,2013-09-06 14:51:00
11:51 AM,66.0,39.9,38,30.25,10.0,NE,10.4,-,N/A,,Mostly Cloudy,50,2013-09-06 15:51:00
12:51 PM,66.9,37.9,34,30.23,10.0,Calm,Calm,-,N/A,,Mostly Cloudy,0,2013-09-06 16:51:00
1:51 PM,68.0,39.9,36,30.22,10.0,NE,4.6,-,N/A,,Scattered Clouds,40,2013-09-06 17:51:00
2:51 PM,69.1,39.0,33,30.20,10.0,East,5.8,-,N/A,,Scattered Clouds,80,2013-09-06 18:51:00
3:51 PM,70.0,37.9,31,30.17,10.0,East,6.9,-,N/A,,Scattered Clouds,80,2013-09-06 19:51:00
4:51 PM,71.1,36.0,28,30.16,10.0,Variable,4.6,-,N/A,,Scattered Clouds,0,2013-09-06 20:51:00
5:51 PM,69.1,41.0,36,30.15,10.0,SSW,4.6,-,N/A,,Partly Cloudy,200,2013-09-06 21:51:00
6:51 PM,68.0,42.1,39,30.15,10.0,South,6.9,-,N/A,,Partly Cloudy,180,2013-09-06 22:51:00
7:51 PM,66.0,43.0,43,30.16,10.0,South,6.9,-,N/A,,Partly Cloudy,170,2013-09-06 23:51:00
8:51 PM,66.0,43.0,43,30.16,10.0,South,5.8,-,N/A,,Partly Cloudy,170,2013-09-07 00:51:00
9:51 PM,64.9,45.0,48,30.15,10.0,South,8.1,-,N/A,,Partly Cloudy,170,2013-09-07 01:51:00
10:51 PM,64.9,45.0,48,30.14,10.0,South,8.1,-,N/A,,Clear,190,2013-09-07 02:51:00
11:51 PM,64.9,45.0,48,30.13,10.0,SSW,4.6,-,N/A,,Clear,210,2013-09-07 03:51:00